Flag for Equatorial Guinea Weather past 2 weeks in Malabo, Equatorial Guinea

Now
75 °F

Partly cloudy.


Feels Like: 75 °F
Forecast: 74 / 79 °F
Wind: 3 mph from Southwest

Location: Malabo/Fernando Poo

Current Time: Jul 30, 2015 at 4:04:31 AM

Latest Report: Jul 30, 2015 at 2:00 AM


Visibility: N/A

Pressure: 29.98 "Hg

Humidity: 83%

Dew point: 70 °F

Location of MalaboLocation

Historic Weather in Malabo — Graph

°F

Malabo temperature yesterday

Maximum temperature yesterday: 81 °F (at 2:00 PM)
Minimum temperature yesterday: 75 °F (at 1:00 AM)
Average temperature yesterday: 76 °F

Past Weeks' High & Low Weather Summary

 TemperatureHumidityPressure
High84 °F (Jul 16, 10:00 AM)100% (Jul 15, 2:00 AM)30.07 "Hg (Jul 15, 2:00 AM)
Low72 °F (Jul 22, 12:00 AM)70% (Jul 28, 2:00 PM)29.86 "Hg (Jul 19, 5:00 PM)
Average77 °F85%29.97 "Hg
* Reported Jul 15 2:00 AM — Jul 30 2:00 AM, Malabo, Weather by CustomWeather, © 2015

Note: Actual official high and low records may vary slightly from our data, if they occured in-between our weather recording intervals... More about our weather records

Advertising

Malabo weather history for previous 24 hours

 ConditionsComfort  
Time TempWeatherWind HumidityBarometerVisibility
2:00 AM
Thu, Jul 30
75 °FPartly cloudy.3 mph83%29.98 "HgN/A
1:00 AM75 °FPartly cloudy.9 mph83%30.01 "HgN/A
12:00 AM77 °FPartly cloudy.8 mph79%30.01 "HgN/A
11:00 PM
Wed, Jul 29
75 °FPartly cloudy.10 mph83%30.01 "HgN/A
10:00 PM75 °FPassing clouds.9 mph83%30.01 "HgN/A
8:00 PM75 °FPassing clouds.7 mph83%29.98 "HgN/A
7:00 PM75 °FPartly cloudy.6 mph83%29.95 "HgN/A
6:00 PM77 °FBroken clouds.9 mph79%29.95 "HgN/A
4:00 PM81 °FBroken clouds.9 mph74%29.95 "HgN/A
2:00 PM81 °FBroken clouds.9 mph74%29.98 "Hg5 mi
1:00 PM77 °FBroken clouds.8 mph83%30.01 "Hg4 mi
12:00 PM77 °FBroken clouds.7 mph83%30.04 "Hg5 mi
11:00 AM75 °FPartly sunny.8 mph89%30.07 "Hg5 mi
10:00 AM75 °FDrizzle. Broken clouds.8 mph89%30.04 "Hg4 mi
9:00 AM77 °FBroken clouds.6 mph79%30.04 "Hg5 mi
8:00 AM75 °FBroken clouds.10 mph83%30.04 "Hg5 mi
6:00 AM75 °FPassing clouds.7 mph83%30.01 "HgN/A
5:00 AM75 °FPassing clouds.7 mph78%29.98 "HgN/A
4:00 AM75 °FPartly cloudy.9 mph83%29.98 "HgN/A
Weather by CustomWeather, © 2015

See weather overviewHow to use our weather pages